Weather History for Spokane Fairchild, WA

Change the Weather History Date:

Wednesday, November 27, 2013

  Actual Average Record
Temperature  
Mean Temperature 28 °F -  
Max Temperature 34 °F 36 °F 49 °F (2011)
Min Temperature 21 °F 26 °F 14 °F (2006)
Degree Days  
Heating Degree Days 38    
Moisture  
Dew Point 24 °F    
Average Humidity 95    
Maximum Humidity 100    
Minimum Humidity 76    
Precipitation  
Precipitation 0.00 in - - ()
Sea Level Pressure  
Sea Level Pressure 30.16 in    
Wind  
Wind Speed 5 mph (NNE)    
Max Wind Speed 9 mph    
Max Gust Speed -    
Visibility 3 miles    
Events Fog , Snow    
Averages and records for this station are not official NWS values.
T = Trace of Precipitation, MM = Missing Value Source: NWS Daily Summary

Daily Weather History Graph

Daily Weather History Graph

Search for Another Location

Airport:

Trip Planner

Search our weather history database for the weather conditions in past years. The results will help you decide how hot, cold, wet, or windy it might be!

Date:

Astronomy

Nov. 27, 2013 Rise Set
Actual Time 7:13 AM PST 4:03 PM PST
Civil Twilight 6:38 AM PST 4:38 PM PST
Nautical Twilight 6:00 AM PST 5:16 PM PST
Astronomical Twilight 5:23 AM PST 5:53 PM PST
Moon 12:56 AM PST (11/27) 1:03 PM PST (11/27)
Length of Visible Light 9h 59m
Length of Day
8h 49m
Waning Crescent, 30% of the Moon is Illuminated
Nov 27
Waning Crescent
Dec 2
New
Dec 9
First Quarter
Dec 17
Full
Dec 25
Last Quarter

Hourly Weather History & Observations

Time (PST) Temp. Windchill Dew Point Humidity Pressure Visibility Wind Dir Wind Speed Gust Speed Precip Events Conditions
12:58 AM 26.1 °F - 24.8 °F 95% 30.25 in 10.0 mi Calm Calm - N/A   Clear
1:58 AM 23.7 °F 19.3 °F 22.5 °F 95% 30.25 in 10.0 mi North 3.5 mph - N/A   Clear
2:58 AM 23.9 °F 18.0 °F 22.5 °F 94% 30.24 in 7.0 mi NE 4.6 mph - N/A   Clear
3:37 AM 23.0 °F 18.4 °F 23.0 °F 100% 30.15 in 3.0 mi NE 3.5 mph - N/A   Clear
3:39 AM 23.0 °F 17.0 °F 23.0 °F 100% 30.15 in 2.0 mi NE 4.6 mph - N/A   Clear
3:40 AM 23.0 °F 17.0 °F 23.0 °F 100% 30.15 in 1.8 mi NE 4.6 mph - N/A   Clear
3:42 AM 23.0 °F 17.0 °F 23.0 °F 100% 30.15 in 1.5 mi NE 4.6 mph - N/A   Clear
3:43 AM 23.0 °F 17.0 °F 23.0 °F 100% 30.15 in 1.2 mi NE 4.6 mph - N/A   Clear
3:45 AM 23.0 °F 18.4 °F 23.0 °F 100% 30.15 in 1.2 mi NE 3.5 mph - N/A   Clear
3:46 AM 23.0 °F 18.4 °F 23.0 °F 100% 30.15 in 1.0 mi NE 3.5 mph - N/A   Clear
3:48 AM 23.0 °F 18.4 °F 23.0 °F 100% 30.15 in 1.2 mi NE 3.5 mph - N/A   Clear
3:50 AM 23.0 °F 17.0 °F 23.0 °F 100% 30.15 in 1.5 mi NE 4.6 mph - N/A   Clear
3:52 AM 23.0 °F 17.0 °F 21.2 °F 93% 30.15 in 1.8 mi NE 4.6 mph - N/A   Clear
3:54 AM 23.0 °F 18.4 °F 21.2 °F 93% 30.15 in 2.5 mi NE 3.5 mph - N/A   Clear
3:56 AM 23.0 °F 18.4 °F 21.2 °F 93% 30.15 in 3.0 mi NNE 3.5 mph - N/A   Clear
3:57 AM 23.0 °F 18.4 °F 23.0 °F 100% 30.15 in 3.0 mi NNE 3.5 mph - N/A   Clear
3:58 AM 23.2 °F 18.7 °F 22.1 °F 96% 30.24 in 3.0 mi NNE 3.5 mph - N/A   Clear
4:34 AM 21.2 °F 11.7 °F 21.2 °F 100% 30.14 in 3.0 mi NNE 8.1 mph - N/A Snow Light Snow
4:38 AM 23.0 °F 14.7 °F 21.2 °F 93% 30.14 in 7.0 mi NNE 6.9 mph - N/A   Clear
4:58 AM 23.2 °F 16.0 °F 22.1 °F 96% 30.23 in 10.0 mi North 5.8 mph - 0.00 in   Clear
5:12 AM 23.0 °F 15.8 °F 23.0 °F 100% 30.14 in 2.5 mi NNE 5.8 mph - N/A   Clear
5:14 AM 23.0 °F 15.8 °F 21.2 °F 93% 30.14 in 2.0 mi NNE 5.8 mph - N/A   Clear
5:16 AM 23.0 °F 15.8 °F 21.2 °F 93% 30.14 in 1.8 mi NNE 5.8 mph - N/A   Clear
5:18 AM 23.0 °F 17.0 °F 21.2 °F 93% 30.14 in 1.5 mi NNE 4.6 mph - N/A   Clear
5:20 AM 23.0 °F 15.8 °F 21.2 °F 93% 30.14 in 1.2 mi NNE 5.8 mph - N/A   Clear
5:21 AM 23.0 °F 15.8 °F 21.2 °F 93% 30.14 in 1.0 mi NNE 5.8 mph - N/A   Clear
5:23 AM 21.2 °F 13.6 °F 21.2 °F 100% 30.14 in 1.0 mi North 5.8 mph - N/A   Clear
5:25 AM 21.2 °F 13.6 °F 19.4 °F 93% 30.14 in 0.8 mi NNE 5.8 mph - N/A   Clear
5:27 AM 21.2 °F 13.6 °F 19.4 °F 93% 30.14 in 0.8 mi NNE 5.8 mph - N/A   Clear
5:30 AM 21.2 °F 13.6 °F 19.4 °F 93% 30.14 in 0.5 mi NNE 5.8 mph - N/A Fog Light Freezing Fog
5:36 AM 21.2 °F 13.6 °F 19.4 °F 93% 30.14 in 0.5 mi North 5.8 mph - N/A Fog , Snow Light Freezing Fog
5:38 AM 21.2 °F 13.6 °F 19.4 °F 93% 30.14 in 0.5 mi North 5.8 mph - N/A Fog , Snow Light Freezing Fog
5:46 AM 21.2 °F 14.9 °F 19.4 °F 93% 30.14 in 0.5 mi North 4.6 mph - N/A Fog , Snow Light Freezing Fog
5:48 AM 21.2 °F 14.9 °F 19.4 °F 93% 30.14 in 0.5 mi North 4.6 mph - N/A Fog , Snow Light Freezing Fog
5:53 AM 21.2 °F 14.9 °F 19.4 °F 93% 30.14 in 0.5 mi NNE 4.6 mph - N/A Fog Light Freezing Fog
5:58 AM 21.2 °F 14.9 °F 19.8 °F 94% 30.24 in 0.5 mi North 4.6 mph - 0.00 in Fog Light Freezing Fog
6:10 AM 21.2 °F 13.6 °F 21.2 °F 100% 30.14 in 0.2 mi NNE 5.8 mph - N/A Fog Light Freezing Fog
6:11 AM 21.2 °F 13.6 °F 21.2 °F 100% 30.14 in 0.2 mi NNE 5.8 mph - N/A Fog Light Freezing Fog
6:19 AM 21.2 °F 14.9 °F 21.2 °F 100% 30.15 in 0.2 mi NNE 4.6 mph - N/A Fog Light Freezing Fog
6:28 AM 23.0 °F 15.8 °F 21.2 °F 93% 30.15 in 0.2 mi NE 5.8 mph - N/A Fog , Snow Light Freezing Fog
6:37 AM 23.0 °F 15.8 °F 21.2 °F 93% 30.15 in 0.2 mi NE 5.8 mph - N/A Fog , Snow Light Freezing Fog
6:50 AM 23.0 °F 17.0 °F 23.0 °F 100% 30.15 in 0.2 mi NE 4.6 mph - N/A Fog , Snow Light Freezing Fog
6:58 AM 23.4 °F 17.4 °F 22.1 °F 95% 30.24 in 0.2 mi NE 4.6 mph - 0.00 in Fog , Snow Light Freezing Fog
7:02 AM 23.0 °F 18.4 °F 23.0 °F 100% 30.15 in 0.2 mi NE 3.5 mph - N/A Fog , Snow Light Freezing Fog
7:04 AM 23.0 °F 18.4 °F 23.0 °F 100% 30.15 in 0.2 mi NE 3.5 mph - N/A Fog , Snow Light Freezing Fog
7:22 AM 23.0 °F 18.4 °F 21.2 °F 93% 30.16 in 0.2 mi NE 3.5 mph - N/A Fog Light Freezing Fog
7:30 AM 23.0 °F 18.4 °F 21.2 °F 93% 30.15 in 0.1 mi NE 3.5 mph - N/A Fog Light Freezing Fog
7:35 AM 23.0 °F 18.4 °F 21.2 °F 93% 30.15 in 0.1 mi NE 3.5 mph - N/A Fog Light Freezing Fog
7:37 AM 23.0 °F 18.4 °F 21.2 °F 93% 30.16 in 0.2 mi NE 3.5 mph - N/A Fog Light Freezing Fog
7:40 AM 23.0 °F 17.0 °F 21.2 °F 93% 30.15 in 0.2 mi NE 4.6 mph - N/A Fog Light Freezing Fog
7:49 AM 23.0 °F - 21.2 °F 93% 30.15 in 0.2 mi NE 2.3 mph - N/A Fog Light Freezing Fog
7:58 AM 22.6 °F - 21.4 °F 95% 30.26 in 0.2 mi NNE 2.3 mph - 0.00 in Fog Light Freezing Fog
8:19 AM 23.0 °F 18.4 °F 23.0 °F 100% 30.15 in 0.2 mi ENE 3.5 mph - N/A Fog Light Freezing Fog
8:21 AM 23.0 °F 17.0 °F 23.0 °F 100% 30.15 in 0.2 mi ENE 4.6 mph - N/A Fog Light Freezing Fog
8:24 AM 23.0 °F 17.0 °F 23.0 °F 100% 30.15 in 0.2 mi ENE 4.6 mph - N/A Fog Light Freezing Fog
8:28 AM 24.8 °F 19.1 °F 23.0 °F 93% 30.15 in 0.2 mi NE 4.6 mph - N/A Fog Light Freezing Fog
8:32 AM 24.8 °F 19.1 °F 23.0 °F 93% 30.16 in 0.2 mi NE 4.6 mph - N/A Fog Light Freezing Fog
8:33 AM 24.8 °F 19.1 °F 23.0 °F 93% 30.16 in 0.2 mi NE 4.6 mph - N/A Fog Light Freezing Fog
8:34 AM 24.8 °F 19.1 °F 23.0 °F 93% 30.16 in 0.5 mi NE 4.6 mph - N/A Fog Light Freezing Fog
8:36 AM 24.8 °F 19.1 °F 23.0 °F 93% 30.16 in 0.5 mi NE 4.6 mph - N/A Fog Light Freezing Fog
8:37 AM 24.8 °F 19.1 °F 23.0 °F 93% 30.16 in 0.8 mi NE 4.6 mph - N/A   Mist
8:39 AM 24.8 °F 16.9 °F 24.8 °F 100% 30.16 in 1.0 mi NE 6.9 mph - N/A   Mist
8:45 AM 24.8 °F 16.9 °F 24.8 °F 100% 30.16 in 0.8 mi NE 6.9 mph - N/A   Mist
8:46 AM 24.8 °F 16.9 °F 24.8 °F 100% 30.16 in 0.8 mi NE 6.9 mph - N/A   Mist
8:48 AM 24.8 °F 16.9 °F 24.8 °F 100% 30.15 in 0.5 mi NE 6.9 mph - N/A Fog Light Freezing Fog
8:51 AM 26.6 °F 19.1 °F 24.8 °F 93% 30.15 in 0.5 mi NE 6.9 mph - N/A Fog Light Freezing Fog
8:55 AM 26.6 °F 18.2 °F 24.8 °F 93% 30.15 in 0.5 mi NE 8.1 mph - N/A Fog Light Freezing Fog
8:57 AM 26.6 °F 19.1 °F 26.6 °F 100% 30.15 in 0.2 mi NE 6.9 mph - N/A Fog Light Freezing Fog
8:58 AM 26.4 °F 18.9 °F 25.7 °F 97% 30.25 in 0.2 mi NE 6.9 mph - 0.00 in Fog Light Freezing Fog
9:06 AM 26.6 °F 18.2 °F 26.6 °F 100% 30.15 in 0.5 mi NE 8.1 mph - N/A Fog Light Freezing Fog
9:10 AM 26.6 °F 19.1 °F 26.6 °F 100% 30.15 in 0.2 mi NE 6.9 mph - N/A Fog Light Freezing Fog
9:23 AM 26.6 °F 19.1 °F 26.6 °F 100% 30.15 in 0.2 mi NE 6.9 mph - N/A Fog Light Freezing Fog
9:45 AM 28.4 °F 21.2 °F 26.6 °F 93% 30.14 in 0.2 mi NE 6.9 mph - N/A Fog Light Freezing Fog
9:58 AM 27.9 °F 20.6 °F 27.1 °F 97% 30.25 in 0.2 mi NE 6.9 mph - N/A Fog Light Freezing Fog
10:32 AM 28.4 °F 22.2 °F 28.4 °F 100% 30.15 in 0.5 mi NE 5.8 mph - N/A Fog Light Freezing Fog
10:34 AM 28.4 °F 22.2 °F 28.4 °F 100% 30.15 in 0.5 mi NNE 5.8 mph - N/A Fog Light Freezing Fog
10:38 AM 28.4 °F 22.2 °F 28.4 °F 100% 30.14 in 0.8 mi NE 5.8 mph - N/A   Mist
10:40 AM 28.4 °F 23.3 °F 28.4 °F 100% 30.14 in 1.0 mi NE 4.6 mph - N/A   Mist
10:41 AM 28.4 °F 23.3 °F 28.4 °F 100% 30.14 in 1.0 mi NE 4.6 mph - N/A   Mist
10:45 AM 28.4 °F 22.2 °F 28.4 °F 100% 30.14 in 1.2 mi NNE 5.8 mph - N/A   Overcast
10:50 AM 28.4 °F 23.3 °F 28.4 °F 100% 30.14 in 1.0 mi NNE 4.6 mph - N/A   Mist
10:54 AM 28.4 °F 22.2 °F 28.4 °F 100% 30.14 in 0.8 mi NNE 5.8 mph - N/A   Mist
10:56 AM 28.4 °F 22.2 °F 28.4 °F 100% 30.14 in 0.8 mi NNE 5.8 mph - N/A   Mist
10:58 AM 28.8 °F 22.6 °F 28.2 °F 98% 30.24 in 0.8 mi NNE 5.8 mph - N/A   Mist
11:01 AM 28.4 °F 22.2 °F 28.4 °F 100% 30.14 in 0.8 mi NNE 5.8 mph - N/A   Mist
11:03 AM 28.4 °F 22.2 °F 28.4 °F 100% 30.14 in 1.0 mi NE 5.8 mph - N/A   Mist
11:06 AM 28.4 °F 23.3 °F 28.4 °F 100% 30.14 in 1.2 mi NNE 4.6 mph - N/A   Overcast
11:26 AM 28.4 °F 21.2 °F 28.4 °F 100% 30.14 in 1.2 mi NNE 6.9 mph - N/A   Overcast
11:29 AM 28.4 °F 22.2 °F 28.4 °F 100% 30.14 in 1.0 mi NNE 5.8 mph - N/A   Mist
11:31 AM 28.4 °F 22.2 °F 28.4 °F 100% 30.14 in 1.2 mi NNE 5.8 mph - N/A   Overcast
11:35 AM 28.4 °F 22.2 °F 28.4 °F 100% 30.13 in 1.5 mi NNE 5.8 mph - N/A   Overcast
11:41 AM 28.4 °F 21.2 °F 28.4 °F 100% 30.13 in 1.8 mi NE 6.9 mph - N/A   Overcast
11:43 AM 28.4 °F 21.2 °F 28.4 °F 100% 30.13 in 1.5 mi NE 6.9 mph - N/A   Overcast
11:45 AM 28.4 °F 22.2 °F 28.4 °F 100% 30.13 in 1.8 mi NNE 5.8 mph - N/A   Overcast
11:47 AM 28.4 °F 21.2 °F 28.4 °F 100% 30.13 in 2.0 mi NE 6.9 mph - N/A   Overcast
11:49 AM 28.4 °F 20.4 °F 28.4 °F 100% 30.13 in 2.5 mi NE 8.1 mph - N/A   Overcast
11:51 AM 28.4 °F 20.4 °F 28.4 °F 100% 30.13 in 3.0 mi NE 8.1 mph - N/A   Overcast
11:58 AM 29.5 °F 22.5 °F 28.9 °F 98% 30.21 in 4.0 mi NNE 6.9 mph - N/A   Overcast
12:03 PM 30.2 °F 24.3 °F 28.4 °F 93% 30.12 in 5.0 mi NNE 5.8 mph - N/A   Overcast
12:28 PM 30.2 °F 21.9 °F 30.2 °F 100% 30.11 in 10.0 mi NNE 9.2 mph - N/A   Scattered Clouds
12:58 PM 31.5 °F 24.2 °F 31.3 °F 99% 30.19 in 10.0 mi NNE 8.1 mph - N/A   Partly Cloudy
1:58 PM 34.3 °F 29.2 °F 29.1 °F 81% 30.17 in 10.0 mi NNW 5.8 mph - N/A   Mostly Cloudy
2:58 PM 34.7 °F 29.6 °F 27.7 °F 76% 30.17 in 10.0 mi NNE 5.8 mph - N/A   Clear
3:58 PM 32.0 °F 27.5 °F 27.0 °F 82% 30.17 in 10.0 mi NE 4.6 mph - N/A   Clear
4:58 PM 30.4 °F 23.6 °F 26.2 °F 85% 30.17 in 10.0 mi North 6.9 mph - N/A   Clear
5:39 PM 32.0 °F 25.6 °F 26.6 °F 80% 30.09 in 10.0 mi NNW 6.9 mph - N/A   Clear
5:48 PM 32.0 °F 25.6 °F 26.6 °F 80% 30.09 in 10.0 mi NNW 6.9 mph - N/A   Clear
5:58 PM 30.6 °F 23.1 °F 26.2 °F 84% 30.19 in 10.0 mi North 8.1 mph - 0.00 in   Clear
6:58 PM 31.3 °F 25.6 °F 26.4 °F 82% 30.18 in 10.0 mi North 5.8 mph - N/A   Clear
7:57 PM 30.2 °F 24.3 °F 26.6 °F 86% 30.09 in 10.0 mi North 5.8 mph - N/A   Mostly Cloudy
7:58 PM 30.7 °F 24.9 °F 26.4 °F 84% 30.19 in 10.0 mi North 5.8 mph - N/A   Mostly Cloudy
8:07 PM 30.2 °F 24.3 °F 26.6 °F 86% 30.09 in 10.0 mi North 5.8 mph - N/A   Scattered Clouds
8:58 PM 28.8 °F 20.9 °F 25.7 °F 88% 30.18 in 10.0 mi NNE 8.1 mph - 0.00 in   Scattered Clouds
9:58 PM 27.9 °F 19.8 °F 25.3 °F 90% 30.19 in 10.0 mi NNE 8.1 mph - N/A   Partly Cloudy
10:58 PM 27.5 °F 21.1 °F 25.5 °F 92% 30.19 in 10.0 mi North 5.8 mph - N/A   Clear
11:58 PM 27.7 °F 19.6 °F 25.0 °F 90% 30.18 in 10.0 mi NNE 8.1 mph - N/A   Clear